Torna al catalogo

CZ-6A DEB

AttivoPO
NORAD 60712·DEBRIS·🇨🇳 China

Lanciato Aug 6, 2024 da Taiyuan Satellite Launch Center

Loading…

Prossimi Passaggi (prossime 24 ore)

TLE

AggiornatoSource: Space-Track

Epoca: Sep 14, 2026, 09:21 UTC

1 60712U 24140DR  26257.38991728  .00001291  00000-0  18495-3 0  9999
2 60712  88.8792 246.1275 0147045 253.1396 105.3652 14.68745714111852

Traccia CZ-6A DEB in tempo reale con AllMySat

Download on the App Store